Stations météo

Publicité
St-Auban-Sur-Durance, France (7588): Température de l'air & dewpoint: 07.08.2020 13:00:00 - 13.08.2020 13:00:00 (CEST)St-Auban-Sur-Durance, France (7588): Température de l'air 5cm: 07.08.2020 13:00:00 - 13.08.2020 13:00:00 (CEST)St-Auban-Sur-Durance, France (7588): Température de l'air -20cm: 07.08.2020 13:00:00 - 13.08.2020 13:00:00 (CEST)St-Auban-Sur-Durance, France (7588): Vitesse du vent & gusts: 07.08.2020 13:00:00 - 13.08.2020 13:00:00 (CEST)St-Auban-Sur-Durance, France (7588): Direction du vent: 07.08.2020 13:00:00 - 13.08.2020 13:00:00 (CEST)St-Auban-Sur-Durance, France (7588): reduced air pressure: 07.08.2020 13:00:00 - 13.08.2020 13:00:00 (CEST)St-Auban-Sur-Durance, France (7588): visibility: 07.08.2020 13:00:00 - 13.08.2020 13:00:00 (CEST)St-Auban-Sur-Durance, France (7588): Ensoleillement: 07.08.2020 13:00:00 - 13.08.2020 13:00:00 (CEST)St-Auban-Sur-Durance, France (7588): Quantités de précipitations: 07.08.2020 13:00:00 - 13.08.2020 13:00:00 (CEST)
Date & Time tt [°C] td [°C] tt 5cm [°C] tt -20cm [°C] ff [km/h] ff [knt] fx [km/h] fx [knt] dd ppp [hPa] vv [km] sd [min] rr [mm]
13.08.2020 13:00:00 - - - - - - - - - - - - -
13.08.2020 12:00:00 - - - - - - - - - - - - -
13.08.2020 11:00:00 - - - - - - - - - - - - -
13.08.2020 10:00:00 - - - - - - - - - - - - -
13.08.2020 09:00:00 - - - - - - - - - - - - -
13.08.2020 08:00:00 - - - - - - - - - - - - -
13.08.2020 07:00:00 - - - - - - - - - - - - -
13.08.2020 06:00:00 - - - - - - - - - - - - -
13.08.2020 05:00:00 - - - - - - - - - - - - -
13.08.2020 04:00:00 - - - - - - - - - - - - -
13.08.2020 03:00:00 - - - - - - - - - - - - -
13.08.2020 02:00:00 - - - - - - - - - - - - -
13.08.2020 01:00:00 - - - - - - - - - - - - -
13.08.2020 00:00:00 - - - - - - - - - - - - -
12.08.2020 23:00:00 - - - - - - - - - - - - -
12.08.2020 22:00:00 - - - - - - - - - - - - -
12.08.2020 21:00:00 - - - - - - - - - - - - -
12.08.2020 20:00:00 - - - - - - - - - - - - -
12.08.2020 19:00:00 - - - - - - - - - - - - -
12.08.2020 18:00:00 - - - - - - - - - - - - -
12.08.2020 17:00:00 - - - - - - - - - - - - -
12.08.2020 16:00:00 - - - - - - - - - - - - -
12.08.2020 15:00:00 - - - - - - - - - - - - -
12.08.2020 14:00:00 - - - - - - - - - - - - -
12.08.2020 13:00:00 - - - - - - - - - - - - -
12.08.2020 12:00:00 - - - - - - - - - - - - -
12.08.2020 11:00:00 - - - - - - - - - - - - -
12.08.2020 10:00:00 - - - - - - - - - - - - -
12.08.2020 09:00:00 22,7 15,0 25,9 30,1 4 2 9 5 N 1016,7 20 60 0,0
12.08.2020 08:00:00 19,6 14,6 18,4 30,4 6 3 10 5 NE 1016,8 20 56 0,0
12.08.2020 07:00:00 17,0 13,9 16,9 30,6 8 4 13 7 NNE 1017,2 20 0 0,0
12.08.2020 06:00:00 17,3 14,0 17,3 30,9 7 4 11 6 NE 1016,7 20 0 0,0
12.08.2020 05:00:00 17,9 14,0 17,4 31,1 5 3 12 6 ENE 1016,5 20 0 0,0
12.08.2020 04:00:00 18,4 13,7 18,2 31,3 5 3 13 7 ENE 1016,3 20 0 0,0
12.08.2020 03:00:00 19,3 14,1 19,1 31,5 5 3 10 5 E 1016,5 20 0 0,0
12.08.2020 02:00:00 19,5 14,1 19,3 31,7 6 4 8 5 NNE 1016,6 20 0 0,0
12.08.2020 01:00:00 21,0 14,2 20,7 31,9 4 2 9 5 E 1016,3 20 0 0,0
12.08.2020 00:00:00 22,2 13,8 22,0 32,0 4 2 14 8 ESE 1016,1 20 0 0,0
11.08.2020 23:00:00 23,7 13,8 23,0 32,0 8 4 14 7 SE 1015,6 20 0 0,0
11.08.2020 22:00:00 24,8 14,0 24,9 32,0 5 3 16 9 WSW 1015,6 20 0 0,0
11.08.2020 21:00:00 27,2 13,5 27,4 32,0 11 6 31 17 SSW 1014,2 20 0 0,0
11.08.2020 20:00:00 29,0 13,6 30,4 31,8 19 11 36 19 SSW 1013,2 20 33 0,0
11.08.2020 19:00:00 32,0 14,2 37,3 31,5 23 13 36 19 SSW 1012,1 20 60 0,0
11.08.2020 18:00:00 34,3 12,6 41,4 31,2 23 12 32 17 SW 1011,6 20 60 0,0
11.08.2020 17:00:00 34,1 10,7 43,7 30,8 19 10 28 15 SW 1011,7 20 60 0,0
11.08.2020 16:00:00 34,1 10,0 45,7 30,3 9 5 20 11 SSW 1012,1 20 60 0,0
11.08.2020 15:00:00 33,9 9,2 44,8 29,9 10 5 22 12 SW 1012,7 20 60 0,0
11.08.2020 14:00:00 32,8 9,6 44,7 29,7 9 5 23 12 SW 1013,3 19 60 0,0
11.08.2020 13:00:00 31,7 11,0 41,6 29,6 5 3 13 7 W 1014,0 16 60 0,0
11.08.2020 12:00:00 28,6 12,9 36,0 29,6 8 4 21 11 NE 1014,8 20 60 0,0
11.08.2020 11:00:00 26,3 14,4 32,9 29,7 13 7 31 17 NE 1015,6 20 60 0,0
11.08.2020 10:00:00 23,6 14,9 28,1 29,8 15 8 29 15 NNE 1016,3 20 60 0,0
11.08.2020 09:00:00 21,9 14,8 25,2 30,0 13 7 26 14 NNE 1016,8 20 60 0,0
11.08.2020 08:00:00 20,8 14,7 20,7 30,2 11 6 21 12 NE 1016,8 20 44 0,0
11.08.2020 07:00:00 19,6 14,6 20,2 30,4 9 5 26 14 ENE 1016,6 20 0 0,0
11.08.2020 06:00:00 19,7 14,9 20,6 30,6 12 7 27 15 NE 1016,3 20 0 0,0
11.08.2020 05:00:00 19,8 14,8 20,8 30,8 11 6 31 17 ENE 1015,8 20 0 0,0
11.08.2020 04:00:00 20,5 15,1 21,3 31,0 14 8 32 17 NE 1015,6 20 0 0,0
11.08.2020 03:00:00 21,1 14,7 22,0 31,2 18 10 38 20 N 1015,3 20 0 0,0
11.08.2020 02:00:00 21,2 14,8 22,3 31,3 18 10 36 19 NE 1015,8 20 0 0,0
11.08.2020 01:00:00 21,7 14,6 23,0 31,5 16 9 29 16 NNE 1016,2 20 0 0,0
11.08.2020 00:00:00 22,7 14,8 24,0 31,6 16 9 42 23 NE 1016,6 20 0 0,0
10.08.2020 23:00:00 24,1 14,2 25,2 31,6 25 14 48 26 N 1016,8 20 0 0,0
10.08.2020 22:00:00 24,9 14,4 26,4 31,7 29 15 45 25 N 1016,4 20 0 0,0
10.08.2020 21:00:00 26,1 13,9 27,4 31,5 22 12 35 19 N 1014,9 20 0 0,0
10.08.2020 20:00:00 29,1 12,9 31,1 31,4 14 8 36 20 SSW 1013,2 20 25 0,0
10.08.2020 19:00:00 30,7 13,5 34,5 31,2 29 16 46 25 SSW 1012,3 20 55 0,0
10.08.2020 18:00:00 34,0 11,8 40,2 30,8 22 12 35 19 SSW 1010,9 20 58 0,0
10.08.2020 17:00:00 34,6 10,4 41,1 30,5 18 10 26 14 SSW 1010,5 20 55 0,0
10.08.2020 16:00:00 33,9 9,9 43,5 30,1 7 4 27 15 SW 1011,0 17 60 0,0
10.08.2020 15:00:00 33,3 9,4 42,4 29,9 19 10 28 15 SW 1011,8 20 60 0,0
10.08.2020 14:00:00 32,7 10,1 43,2 29,7 16 9 26 14 SW 1012,3 20 60 0,0
10.08.2020 13:00:00 30,8 9,1 40,5 29,6 11 6 19 10 SW 1013,4 20 60 0,0
10.08.2020 12:00:00 27,9 13,8 33,2 29,6 2 1 12 7 WNW 1014,3 20 17 0,0
10.08.2020 11:00:00 25,1 13,3 28,3 29,7 6 4 16 9 NNE 1015,0 20 6 0,0
10.08.2020 10:00:00 24,3 12,9 23,7 29,8 6 3 12 6 NE 1015,1 20 14 0,0
10.08.2020 09:00:00 20,4 13,1 22,9 30,0 6 3 12 6 NNE 1016,0 20 0 0,0
10.08.2020 08:00:00 20,3 12,3 20,3 30,2 7 4 14 8 E 1015,6 20 25 0,0
10.08.2020 07:00:00 18,4 12,2 18,6 30,4 8 5 12 7 NE 1015,9 20 3 0,0
10.08.2020 06:00:00 18,4 11,9 18,4 30,6 7 4 15 8 NNE 1015,5 20 0 0,0
10.08.2020 05:00:00 18,9 11,5 18,2 30,9 6 3 18 10 E 1015,4 20 0 0,0
10.08.2020 04:00:00 18,6 11,9 18,5 31,1 9 5 12 6 NNE 1015,4 20 0 0,0
10.08.2020 03:00:00 19,6 11,9 19,6 31,3 6 4 12 7 ENE 1015,1 20 0 0,0
10.08.2020 02:00:00 21,0 11,3 20,2 31,5 8 4 15 8 NNE 1014,9 20 0 0,0
10.08.2020 01:00:00 20,8 10,9 21,2 31,7 5 3 19 11 NE 1015,3 20 0 0,0
10.08.2020 00:00:00 22,6 11,0 22,2 31,7 5 3 16 8 ESE 1015,2 20 0 0,0
09.08.2020 23:00:00 23,3 10,7 22,9 31,8 6 4 13 7 SE 1015,4 20 0 0,0
09.08.2020 22:00:00 25,2 10,6 24,5 31,8 5 3 15 8 WNW 1015,1 20 0 0,0
09.08.2020 21:00:00 27,6 10,3 28,0 31,7 11 6 31 17 SSW 1013,9 20 0 0,0
09.08.2020 20:00:00 30,2 11,2 31,8 31,5 22 12 40 22 SW 1012,6 20 47 0,0
09.08.2020 19:00:00 33,0 11,5 37,7 31,3 30 16 41 22 SW 1011,9 20 60 0,0
09.08.2020 18:00:00 34,5 11,0 41,7 30,9 23 13 33 18 SW 1011,3 20 60 0,0
09.08.2020 17:00:00 34,9 11,3 44,0 30,5 18 10 31 17 SSW 1011,5 20 60 0,0
09.08.2020 16:00:00 34,6 12,3 45,0 30,0 18 10 32 17 SW 1012,0 20 60 0,0
09.08.2020 15:00:00 33,8 12,2 45,6 29,7 9 5 22 12 SSW 1012,8 20 60 0,0
09.08.2020 14:00:00 33,2 11,7 44,6 29,4 10 5 22 12 WSW 1013,8 20 60 0,0
09.08.2020 13:00:00 32,0 11,7 42,8 29,2 8 5 25 14 SW 1014,7 20 60 0,0
09.08.2020 12:00:00 31,0 12,4 40,7 29,2 7 4 15 8 SSW 1015,4 19 60 0,0
09.08.2020 11:00:00 28,2 12,1 36,6 29,3 8 5 16 8 NE 1016,5 20 60 0,0
09.08.2020 10:00:00 25,5 12,3 31,5 29,5 6 3 13 7 E 1017,5 20 60 0,0
09.08.2020 09:00:00 22,6 12,2 26,1 29,7 7 4 14 8 E 1018,2 20 60 0,0
09.08.2020 08:00:00 19,3 12,1 17,1 29,9 5 3 14 8 ENE 1018,8 20 54 0,0
09.08.2020 07:00:00 16,5 11,6 16,2 30,1 9 5 13 7 NNE 1019,3 20 0 0,0
09.08.2020 06:00:00 16,3 11,4 16,1 30,4 7 4 16 9 NNE 1019,1 20 0 0,0
09.08.2020 05:00:00 17,0 11,3 16,6 30,6 8 4 11 6 NE 1019,3 20 0 0,0
09.08.2020 04:00:00 17,9 11,2 17,4 30,8 8 4 11 6 NE 1019,1 20 0 0,0
09.08.2020 03:00:00 19,7 11,2 18,9 31,0 6 3 21 12 NE 1018,8 20 0 0,0
09.08.2020 02:00:00 21,3 11,6 19,8 31,2 11 6 21 11 E 1018,4 18 0 0,0
09.08.2020 01:00:00 20,7 11,3 20,1 31,3 7 4 13 7 E 1018,6 20 0 0,0
09.08.2020 00:00:00 22,4 11,5 20,9 31,4 5 3 10 6 ESE 1018,1 20 0 0,0
08.08.2020 23:00:00 24,1 10,7 23,1 31,5 10 5 13 7 WSW 1017,5 20 0 0,0
08.08.2020 22:00:00 26,8 11,3 25,8 31,5 8 4 30 16 SW 1016,5 20 0 0,0
08.08.2020 21:00:00 29,1 11,6 29,5 31,3 16 9 39 21 S 1015,1 20 27 0,0
08.08.2020 20:00:00 32,7 10,7 34,4 31,1 16 8 28 15 SW 1013,7 20 60 0,0
08.08.2020 19:00:00 34,1 10,7 40,3 30,8 19 10 33 18 SSW 1013,0 20 60 0,0
08.08.2020 18:00:00 34,7 10,5 42,1 30,4 22 12 35 19 SSW 1012,9 20 60 0,0
08.08.2020 17:00:00 35,2 9,6 44,0 30,0 23 13 32 17 SSW 1013,0 20 60 0,0
08.08.2020 16:00:00 35,0 10,1 45,1 29,5 19 11 29 16 SSW 1013,5 20 60 0,0
08.08.2020 15:00:00 34,2 10,1 45,3 29,1 14 7 22 12 SW 1014,4 20 60 0,0
08.08.2020 14:00:00 33,2 9,9 44,1 28,8 14 8 23 12 SSW 1015,2 20 60 0,0
08.08.2020 13:00:00 31,8 9,9 43,1 28,7 10 5 20 11 SW 1016,2 20 60 0,0
08.08.2020 12:00:00 30,0 9,0 39,9 28,7 4 2 14 7 NE 1017,2 20 60 0,0
08.08.2020 11:00:00 27,1 9,9 34,7 28,8 6 4 22 12 NE 1018,3 17 60 0,0
08.08.2020 10:00:00 25,0 9,3 30,9 28,9 10 5 22 12 NE 1019,0 20 60 0,0
08.08.2020 09:00:00 22,3 9,8 25,8 29,1 6 3 13 7 E 1020,0 20 60 0,0
08.08.2020 08:00:00 20,1 9,3 16,2 29,4 6 3 14 8 ESE 1020,3 20 54 0,0
08.08.2020 07:00:00 15,7 9,1 15,0 29,6 8 4 14 8 ENE 1020,8 20 0 0,0
08.08.2020 06:00:00 15,3 9,0 14,7 29,9 10 5 16 9 NNE 1021,0 20 0 0,0
08.08.2020 05:00:00 14,9 8,4 14,6 30,1 9 5 16 8 NE 1021,2 20 0 0,0
08.08.2020 04:00:00 15,4 7,7 15,0 30,4 6 3 14 8 ENE 1021,4 20 0 0,0
08.08.2020 03:00:00 16,7 8,1 16,3 30,6 7 4 19 10 NNE 1021,4 20 0 0,0
08.08.2020 02:00:00 18,9 8,5 17,7 30,8 5 3 18 10 ENE 1021,1 20 0 0,0
08.08.2020 01:00:00 18,6 8,3 17,5 30,9 9 5 19 11 ESE 1020,9 20 0 0,0
08.08.2020 00:00:00 19,5 7,6 18,6 31,1 6 3 11 6 SE 1020,8 20 0 0,0
07.08.2020 23:00:00 22,6 6,4 21,3 31,2 6 4 16 8 W 1019,5 20 0 0,0
07.08.2020 22:00:00 24,0 7,2 23,3 31,2 9 5 18 10 WSW 1018,3 20 0 0,0
07.08.2020 21:00:00 26,5 7,0 26,4 31,1 11 6 23 12 WSW 1016,7 20 0 0,0
07.08.2020 20:00:00 29,6 7,5 30,6 30,9 16 9 29 15 SSW 1015,5 20 52 0,0
07.08.2020 19:00:00 30,9 8,0 36,8 30,6 21 11 38 21 SSW 1014,9 20 60 0,0
07.08.2020 18:00:00 32,0 8,9 38,7 30,3 26 14 41 22 SSW 1014,6 20 60 0,0
07.08.2020 17:00:00 33,1 8,5 42,0 29,8 25 13 40 21 SSW 1014,6 20 60 0,0
07.08.2020 16:00:00 33,5 8,9 44,2 29,4 17 9 28 15 SSW 1014,8 20 60 0,0
07.08.2020 15:00:00 32,6 8,8 43,3 29,0 16 9 30 16 SW 1015,4 20 60 0,0
07.08.2020 14:00:00 31,9 8,8 42,7 28,7 11 6 23 13 SSW 1015,9 20 60 0,0
07.08.2020 13:00:00 30,6 7,7 41,1 28,5 12 6 23 13 S 1016,7 19 60 0,0

tt = Température de l'air
td = dewpoint
tt 5cm = Température de l'air 5cm
tt -20cm = Température de l'air -20cm
ff = Vitesse du vent
fx = gusts
dd = Direction du vent
ppp = reduced air pressure
vv = visibility
sd = Ensoleillement
rr = Quantités de précipitations

stations d'obs. à proximité